Wetterdaten: Mittwoch, 06.01.2016
Datum Zeit Auen-Temp. Temp gefhlt Luftfeuchte Luftdruck Regen Wind Richtung Richtung Taupunkt Windben
06.01.2016 00:00 0,8 C 0,4 C 85 % 1002,5 hPa 0,0 mm 3,4 km/h (1 Bft) S 180 -1,4 C 0,0 km/h (0 Bft)
06.01.2016 00:05 0,9 C 0,4 C 84 % 1002,5 hPa 0,0 mm 4,4 km/h (1 Bft) S 180 -1,5 C 0,0 km/h (0 Bft)
06.01.2016 00:10 0,6 C 0,3 C 84 % 1002,5 hPa 0,0 mm 2,8 km/h (1 Bft) W-SW 247 -1,8 C 15,0 km/h (3 Bft)
06.01.2016 00:15 0,8 C 0,5 C 84 % 1002,5 hPa 0,0 mm 2,3 km/h (1 Bft) SO 135 -1,6 C 3,6 km/h (1 Bft)
06.01.2016 00:20 0,9 C 0,5 C 84 % 1002,5 hPa 0,0 mm 4,4 km/h (1 Bft) S 180 -1,5 C 16,1 km/h (3 Bft)
06.01.2016 00:25 0,8 C 0,6 C 84 % 1002,5 hPa 0,0 mm 3,6 km/h (1 Bft) S-SW 202 -1,6 C 10,4 km/h (2 Bft)
06.01.2016 00:30 0,8 C 0,6 C 83 % 1002,5 hPa 0,0 mm 2,1 km/h (1 Bft) SO 135 -1,8 C 0,0 km/h (0 Bft)
06.01.2016 00:35 0,8 C 0,6 C 83 % 1002,3 hPa 0,0 mm 2,1 km/h (1 Bft) S-SO 157 -1,8 C 0,0 km/h (0 Bft)
06.01.2016 00:40 0,7 C 0,5 C 83 % 1002,3 hPa 0,0 mm 0,0 km/h (0 Bft) SO 135 -1,8 C 0,0 km/h (0 Bft)
06.01.2016 00:45 0,8 C 0,5 C 83 % 1002,3 hPa 0,0 mm 0,0 km/h (0 Bft) S-SO 157 -1,8 C 0,0 km/h (0 Bft)
06.01.2016 00:50 0,7 C 0,4 C 83 % 1002,3 hPa 0,0 mm 0,0 km/h (0 Bft) S 180 -1,8 C 0,0 km/h (0 Bft)
06.01.2016 00:55 0,6 C 0,3 C 83 % 1002,4 hPa 0,0 mm 0,0 km/h (0 Bft) SO 135 -1,9 C 0,0 km/h (0 Bft)
06.01.2016 01:00 0,6 C 0,3 C 83 % 1002,4 hPa 0,0 mm 0,0 km/h (0 Bft) O 90 -1,9 C 0,0 km/h (0 Bft)
06.01.2016 01:05 0,5 C 0,2 C 83 % 1002,4 hPa 0,0 mm 0,0 km/h (0 Bft) O 90 -2,0 C 0,0 km/h (0 Bft)
06.01.2016 01:10 0,3 C 0,1 C 83 % 1002,4 hPa 0,0 mm 0,0 km/h (0 Bft) O 90 -2,2 C 0,0 km/h (0 Bft)
06.01.2016 01:15 0,3 C 0,1 C 83 % 1002,4 hPa 0,0 mm 0,0 km/h (0 Bft) SO 135 -2,2 C 0,0 km/h (0 Bft)
06.01.2016 01:20 0,4 C 0,1 C 84 % 1002,4 hPa 0,0 mm 0,0 km/h (0 Bft) SO 135 -2,0 C 0,0 km/h (0 Bft)
06.01.2016 01:25 0,6 C 0,3 C 84 % 1002,4 hPa 0,0 mm 0,0 km/h (0 Bft) O 90 -1,8 C 0,0 km/h (0 Bft)
06.01.2016 01:30 0,5 C 0,3 C 84 % 1002,4 hPa 0,0 mm 0,0 km/h (0 Bft) O-NO 67 -1,9 C 0,0 km/h (0 Bft)
06.01.2016 01:35 0,7 C 0,5 C 82 % 1002,4 hPa 0,0 mm 0,0 km/h (0 Bft) O-SO 112 -2,0 C 0,0 km/h (0 Bft)
06.01.2016 01:40 0,6 C 0,4 C 84 % 1002,4 hPa 0,0 mm 0,0 km/h (0 Bft) O-NO 67 -1,8 C 0,0 km/h (0 Bft)
06.01.2016 01:45 0,6 C 0,4 C 84 % 1002,4 hPa 0,0 mm 0,0 km/h (0 Bft) N-NW 337 -1,8 C 0,0 km/h (0 Bft)
06.01.2016 01:50 0,3 C 0,1 C 84 % 1002,4 hPa 0,0 mm 0,3 km/h (0 Bft) W-SW 247 -2,1 C 0,0 km/h (0 Bft)
06.01.2016 01:55 0,3 C 0,1 C 83 % 1002,4 hPa 0,0 mm 0,3 km/h (0 Bft) NW 315 -2,2 C 0,0 km/h (0 Bft)
06.01.2016 02:00 0,1 C -0,1 C 83 % 1002,4 hPa 0,0 mm 0,0 km/h (0 Bft) N-NO 22 -2,4 C 0,0 km/h (0 Bft)
06.01.2016 02:05 0,0 C -0,2 C 83 % 1002,4 hPa 0,0 mm 0,0 km/h (0 Bft) NO 45 -2,5 C 0,0 km/h (0 Bft)
06.01.2016 02:10 -0,2 C -0,5 C 83 % 1002,4 hPa 0,0 mm 0,0 km/h (0 Bft) NO 45 -2,7 C 0,0 km/h (0 Bft)
06.01.2016 02:15 -0,1 C -0,4 C 84 % 1002,5 hPa 0,0 mm 0,0 km/h (0 Bft) O-NO 67 -2,5 C 0,0 km/h (0 Bft)
06.01.2016 02:20 -0,1 C -0,5 C 84 % 1002,5 hPa 0,0 mm 1,0 km/h (0 Bft) W-SW 247 -2,5 C 0,0 km/h (0 Bft)
06.01.2016 02:25 0,0 C -0,4 C 84 % 1002,5 hPa 0,0 mm 1,6 km/h (1 Bft) O-SO 112 -2,4 C 0,0 km/h (0 Bft)
06.01.2016 02:30 -0,4 C -0,7 C 84 % 1002,5 hPa 0,0 mm 0,3 km/h (0 Bft) S 180 -2,8 C 0,0 km/h (0 Bft)
06.01.2016 02:35 -0,1 C -0,6 C 85 % 1002,4 hPa 0,0 mm 0,0 km/h (0 Bft) S 180 -2,3 C 0,0 km/h (0 Bft)
06.01.2016 02:40 0,0 C -0,5 C 85 % 1002,4 hPa 0,0 mm 0,3 km/h (0 Bft) S 180 -2,2 C 0,0 km/h (0 Bft)
06.01.2016 02:45 0,0 C -0,5 C 85 % 1002,4 hPa 0,0 mm 0,3 km/h (0 Bft) SO 135 -2,2 C 0,0 km/h (0 Bft)
06.01.2016 02:50 -0,2 C -0,7 C 85 % 1002,4 hPa 0,0 mm 0,0 km/h (0 Bft) SO 135 -2,4 C 0,0 km/h (0 Bft)
06.01.2016 02:55 -0,5 C -0,9 C 84 % 1002,6 hPa 0,0 mm 0,0 km/h (0 Bft) SO 135 -2,9 C 0,0 km/h (0 Bft)
06.01.2016 03:00 -0,6 C -1,0 C 84 % 1002,6 hPa 0,0 mm 0,0 km/h (0 Bft) N-NW 337 -3,0 C 3,6 km/h (1 Bft)
06.01.2016 03:05 -0,8 C -1,1 C 84 % 1002,6 hPa 0,0 mm 0,3 km/h (0 Bft) N-NO 22 -3,2 C 0,0 km/h (0 Bft)
06.01.2016 03:10 -0,9 C -1,2 C 84 % 1002,6 hPa 0,0 mm 0,3 km/h (0 Bft) N-NO 22 -3,3 C 0,0 km/h (0 Bft)
06.01.2016 03:15 -1,0 C -1,3 C 84 % 1002,8 hPa 0,0 mm 0,0 km/h (0 Bft) N-NO 22 -3,4 C 0,0 km/h (0 Bft)
06.01.2016 03:20 -1,0 C -1,3 C 85 % 1002,8 hPa 0,0 mm 0,3 km/h (0 Bft) N-NO 22 -3,2 C 0,0 km/h (0 Bft)
06.01.2016 03:25 -0,7 C -1,1 C 85 % 1002,8 hPa 0,0 mm 0,3 km/h (0 Bft) SO 135 -2,9 C 0,0 km/h (0 Bft)
06.01.2016 03:30 -0,2 C -0,7 C 85 % 1002,8 hPa 0,0 mm 1,3 km/h (1 Bft) SO 135 -2,4 C 3,9 km/h (1 Bft)
06.01.2016 03:35 0,0 C -0,3 C 82 % 1002,6 hPa 0,0 mm 2,3 km/h (1 Bft) SO 135 -2,7 C 3,6 km/h (1 Bft)
06.01.2016 03:40 0,1 C -0,3 C 86 % 1002,6 hPa 0,0 mm 1,6 km/h (1 Bft) O-SO 112 -2,0 C 0,0 km/h (0 Bft)
06.01.2016 03:45 -0,1 C -0,4 C 85 % 1002,6 hPa 0,0 mm 0,5 km/h (0 Bft) O-NO 67 -2,3 C 0,0 km/h (0 Bft)
06.01.2016 03:50 0,2 C -0,2 C 86 % 1002,6 hPa 0,0 mm 0,0 km/h (0 Bft) O-SO 112 -1,9 C 0,0 km/h (0 Bft)
06.01.2016 03:55 0,3 C -0,1 C 85 % 1002,4 hPa 0,0 mm 0,3 km/h (0 Bft) SO 135 -1,9 C 0,0 km/h (0 Bft)
06.01.2016 04:00 0,6 C 0,3 C 82 % 1002,4 hPa 0,0 mm 1,8 km/h (1 Bft) S 180 -2,1 C 0,0 km/h (0 Bft)
06.01.2016 04:05 0,6 C 0,3 C 85 % 1002,4 hPa 0,0 mm 1,8 km/h (1 Bft) SO 135 -1,6 C 0,0 km/h (0 Bft)
06.01.2016 04:10 0,1 C 0,0 C 84 % 1002,4 hPa 0,0 mm 1,0 km/h (0 Bft) S-SO 157 -2,3 C 0,0 km/h (0 Bft)
06.01.2016 04:15 0,4 C 0,1 C 84 % 1002,3 hPa 0,0 mm 1,6 km/h (1 Bft) W-SW 247 -2,0 C 8,0 km/h (2 Bft)
06.01.2016 04:20 0,0 C -0,1 C 84 % 1002,3 hPa 0,0 mm 1,3 km/h (1 Bft) N-NO 22 -2,4 C 0,0 km/h (0 Bft)
06.01.2016 04:25 -0,1 C -0,2 C 84 % 1002,3 hPa 0,0 mm 1,0 km/h (0 Bft) O-NO 67 -2,5 C 0,0 km/h (0 Bft)
06.01.2016 04:30 -0,2 C -0,4 C 84 % 1002,3 hPa 0,0 mm 0,0 km/h (0 Bft) NO 45 -2,6 C 0,0 km/h (0 Bft)
06.01.2016 04:35 -0,3 C -0,6 C 84 % 1002,5 hPa 0,0 mm 0,0 km/h (0 Bft) O-NO 67 -2,7 C 0,0 km/h (0 Bft)
06.01.2016 04:40 -0,3 C -0,6 C 84 % 1002,5 hPa 0,0 mm 0,5 km/h (0 Bft) SO 135 -2,7 C 0,0 km/h (0 Bft)
06.01.2016 04:45 -0,5 C -0,7 C 84 % 1002,5 hPa 0,0 mm 0,5 km/h (0 Bft) SO 135 -2,9 C 0,0 km/h (0 Bft)
06.01.2016 04:50 -0,6 C -0,9 C 84 % 1002,5 hPa 0,0 mm 0,3 km/h (0 Bft) N-NO 22 -3,0 C 0,0 km/h (0 Bft)
06.01.2016 04:55 -0,6 C -0,9 C 85 % 1002,4 hPa 0,0 mm 0,3 km/h (0 Bft) O-SO 112 -2,8 C 0,0 km/h (0 Bft)
06.01.2016 05:00 -0,8 C -1,1 C 85 % 1002,4 hPa 0,0 mm 0,0 km/h (0 Bft) W-SW 247 -3,0 C 3,4 km/h (1 Bft)
06.01.2016 05:05 -0,7 C -1,0 C 85 % 1002,4 hPa 0,0 mm 0,0 km/h (0 Bft) W-NW 292 -2,9 C 0,0 km/h (0 Bft)
06.01.2016 05:10 -0,6 C -0,9 C 85 % 1002,4 hPa 0,0 mm 0,0 km/h (0 Bft) SO 135 -2,8 C 0,0 km/h (0 Bft)
06.01.2016 05:15 -0,6 C -0,9 C 85 % 1002,5 hPa 0,0 mm 0,0 km/h (0 Bft) SO 135 -2,8 C 0,0 km/h (0 Bft)
06.01.2016 05:20 -0,6 C -0,9 C 86 % 1002,5 hPa 0,0 mm 0,0 km/h (0 Bft) SO 135 -2,6 C 0,0 km/h (0 Bft)
06.01.2016 05:25 -0,5 C -0,8 C 86 % 1002,5 hPa 0,0 mm 0,0 km/h (0 Bft) SO 135 -2,5 C 0,0 km/h (0 Bft)
06.01.2016 05:30 -0,7 C -1,0 C 86 % 1002,5 hPa 0,0 mm 0,0 km/h (0 Bft) SO 135 -2,7 C 0,0 km/h (0 Bft)
06.01.2016 05:35 -0,6 C -0,9 C 86 % 1002,4 hPa 0,0 mm 0,5 km/h (0 Bft) SO 135 -2,6 C 0,0 km/h (0 Bft)
06.01.2016 05:40 -0,7 C -1,0 C 86 % 1002,4 hPa 0,0 mm 0,5 km/h (0 Bft) SO 135 -2,7 C 0,0 km/h (0 Bft)
06.01.2016 05:45 -0,9 C -1,2 C 86 % 1002,4 hPa 0,0 mm 0,0 km/h (0 Bft) N-NO 22 -2,9 C 0,0 km/h (0 Bft)
06.01.2016 05:50 -1,2 C -1,5 C 86 % 1002,4 hPa 0,0 mm 0,0 km/h (0 Bft) O-NO 67 -3,2 C 0,0 km/h (0 Bft)
06.01.2016 05:55 -1,2 C -1,5 C 86 % 1002,6 hPa 0,0 mm 0,0 km/h (0 Bft) NO 45 -3,2 C 0,0 km/h (0 Bft)
06.01.2016 06:00 -1,1 C -1,5 C 86 % 1002,6 hPa 0,0 mm 0,0 km/h (0 Bft) O-NO 67 -3,1 C 0,0 km/h (0 Bft)
06.01.2016 06:05 -0,8 C -1,3 C 86 % 1002,6 hPa 0,0 mm 0,0 km/h (0 Bft) S-SO 157 -2,8 C 0,0 km/h (0 Bft)
06.01.2016 06:10 -0,8 C -1,2 C 87 % 1002,6 hPa 0,0 mm 0,3 km/h (0 Bft) SO 135 -2,7 C 3,4 km/h (1 Bft)
06.01.2016 06:15 -0,7 C -1,2 C 87 % 1002,6 hPa 0,0 mm 0,3 km/h (0 Bft) SO 135 -2,6 C 0,0 km/h (0 Bft)
06.01.2016 06:20 -0,6 C -1,1 C 87 % 1002,6 hPa 0,0 mm 0,3 km/h (0 Bft) SO 135 -2,5 C 0,0 km/h (0 Bft)
06.01.2016 06:25 -0,9 C -1,3 C 87 % 1002,6 hPa 0,0 mm 0,0 km/h (0 Bft) N-NW 337 -2,8 C 0,0 km/h (0 Bft)
06.01.2016 06:30 -1,1 C -1,5 C 87 % 1002,6 hPa 0,0 mm 0,0 km/h (0 Bft) NO 45 -3,0 C 0,0 km/h (0 Bft)
06.01.2016 06:35 -1,3 C -1,6 C 86 % 1002,8 hPa 0,0 mm 0,0 km/h (0 Bft) NO 45 -3,3 C 0,0 km/h (0 Bft)
06.01.2016 06:40 -1,1 C -1,5 C 87 % 1002,8 hPa 0,0 mm 0,0 km/h (0 Bft) O-SO 112 -3,0 C 0,0 km/h (0 Bft)
06.01.2016 06:45 -1,2 C -1,6 C 87 % 1002,8 hPa 0,0 mm 0,0 km/h (0 Bft) O-NO 67 -3,1 C 0,0 km/h (0 Bft)
06.01.2016 06:50 -1,3 C -1,6 C 86 % 1002,8 hPa 0,0 mm 0,0 km/h (0 Bft) O-NO 67 -3,3 C 0,0 km/h (0 Bft)
06.01.2016 06:55 -1,1 C -1,5 C 87 % 1002,7 hPa 0,0 mm 0,0 km/h (0 Bft) O-NO 67 -3,0 C 0,0 km/h (0 Bft)
06.01.2016 07:00 -1,1 C -1,4 C 87 % 1002,7 hPa 0,0 mm 0,3 km/h (0 Bft) N 360 -3,0 C 0,0 km/h (0 Bft)
06.01.2016 07:05 -1,1 C -1,4 C 87 % 1002,7 hPa 0,0 mm 0,3 km/h (0 Bft) O-NO 67 -3,0 C 0,0 km/h (0 Bft)
06.01.2016 07:10 -1,2 C -1,5 C 87 % 1002,7 hPa 0,0 mm 0,0 km/h (0 Bft) S-SW 202 -3,1 C 0,0 km/h (0 Bft)
06.01.2016 07:15 -1,0 C -1,4 C 87 % 1002,9 hPa 0,0 mm 0,0 km/h (0 Bft) O-SO 112 -2,9 C 0,0 km/h (0 Bft)
06.01.2016 07:20 -1,3 C -1,6 C 87 % 1002,9 hPa 0,0 mm 0,0 km/h (0 Bft) O-SO 112 -3,2 C 0,0 km/h (0 Bft)
06.01.2016 07:25 -1,4 C -1,6 C 86 % 1002,9 hPa 0,0 mm 0,0 km/h (0 Bft) O-SO 112 -3,4 C 0,0 km/h (0 Bft)
06.01.2016 07:30 -1,1 C -1,4 C 83 % 1002,9 hPa 0,0 mm 0,0 km/h (0 Bft) O-SO 112 -3,6 C 0,0 km/h (0 Bft)
06.01.2016 07:35 -1,1 C -1,4 C 87 % 1003,0 hPa 0,0 mm 0,3 km/h (0 Bft) N-NW 337 -3,0 C 0,0 km/h (0 Bft)
06.01.2016 07:40 -1,0 C -1,3 C 87 % 1003,0 hPa 0,0 mm 0,3 km/h (0 Bft) N-NO 22 -2,9 C 0,0 km/h (0 Bft)
06.01.2016 07:45 -1,0 C -1,2 C 83 % 1003,0 hPa 0,0 mm 0,0 km/h (0 Bft) O-NO 67 -3,5 C 0,0 km/h (0 Bft)
06.01.2016 07:50 -0,8 C -1,1 C 87 % 1003,0 hPa 0,0 mm 0,0 km/h (0 Bft) NW 315 -2,7 C 0,0 km/h (0 Bft)
06.01.2016 07:55 -0,8 C -1,0 C 87 % 1003,1 hPa 0,0 mm 0,0 km/h (0 Bft) NO 45 -2,7 C 0,0 km/h (0 Bft)
06.01.2016 08:00 -0,8 C -1,0 C 83 % 1003,1 hPa 0,0 mm 0,0 km/h (0 Bft) O-NO 67 -3,3 C 0,0 km/h (0 Bft)
06.01.2016 08:05 -0,8 C -1,0 C 87 % 1003,1 hPa 0,0 mm 0,0 km/h (0 Bft) O-NO 67 -2,7 C 0,0 km/h (0 Bft)
06.01.2016 08:10 -0,9 C -1,1 C 87 % 1003,1 hPa 0,0 mm 0,5 km/h (0 Bft) NW 315 -2,8 C 3,4 km/h (1 Bft)
06.01.2016 08:15 -0,8 C -1,0 C 87 % 1003,1 hPa 0,0 mm 1,3 km/h (1 Bft) S-SO 157 -2,7 C 4,1 km/h (1 Bft)
06.01.2016 08:20 -0,6 C -0,8 C 88 % 1003,1 hPa 0,0 mm 2,1 km/h (1 Bft) SO 135 -2,3 C 0,0 km/h (0 Bft)
06.01.2016 08:25 -0,7 C -0,9 C 88 % 1003,1 hPa 0,0 mm 1,8 km/h (1 Bft) W-NW 292 -2,4 C 0,0 km/h (0 Bft)
06.01.2016 08:30 -0,5 C -0,8 C 88 % 1003,1 hPa 0,0 mm 0,8 km/h (0 Bft) SW 225 -2,2 C 0,0 km/h (0 Bft)
06.01.2016 08:35 -0,5 C -0,7 C 88 % 1003,3 hPa 0,0 mm 1,0 km/h (0 Bft) O-SO 112 -2,2 C 0,0 km/h (0 Bft)
06.01.2016 08:40 -0,5 C -0,6 C 84 % 1003,3 hPa 0,0 mm 0,8 km/h (0 Bft) O-SO 112 -2,9 C 0,0 km/h (0 Bft)
06.01.2016 08:45 -0,5 C -0,7 C 88 % 1003,3 hPa 0,0 mm 0,0 km/h (0 Bft) W-SW 247 -2,2 C 0,0 km/h (0 Bft)
06.01.2016 08:50 -0,4 C -0,5 C 84 % 1003,3 hPa 0,0 mm 0,0 km/h (0 Bft) SO 135 -2,8 C 0,0 km/h (0 Bft)
06.01.2016 08:55 -0,2 C -0,4 C 88 % 1003,4 hPa 0,0 mm 0,0 km/h (0 Bft) O-NO 67 -1,9 C 0,0 km/h (0 Bft)
06.01.2016 09:00 -0,3 C -0,4 C 87 % 1003,4 hPa 0,0 mm 0,0 km/h (0 Bft) N-NW 337 -2,2 C 0,0 km/h (0 Bft)
06.01.2016 09:05 -0,2 C -0,3 C 87 % 1003,4 hPa 0,0 mm 0,0 km/h (0 Bft) NW 315 -2,1 C 0,0 km/h (0 Bft)
06.01.2016 09:10 -0,1 C -0,1 C 84 % 1003,4 hPa 0,0 mm 0,3 km/h (0 Bft) W-NW 292 -2,5 C 0,0 km/h (0 Bft)
06.01.2016 09:15 -0,1 C -0,1 C 84 % 1003,4 hPa 0,0 mm 0,3 km/h (0 Bft) N-NW 337 -2,5 C 0,0 km/h (0 Bft)
06.01.2016 09:20 -0,1 C -0,1 C 84 % 1003,4 hPa 0,0 mm 0,0 km/h (0 Bft) N-NW 337 -2,5 C 0,0 km/h (0 Bft)
06.01.2016 09:25 -0,2 C -0,3 C 87 % 1003,4 hPa 0,0 mm 0,0 km/h (0 Bft) O-NO 67 -2,1 C 0,0 km/h (0 Bft)
06.01.2016 09:30 -0,2 C -0,3 C 87 % 1003,4 hPa 0,0 mm 0,0 km/h (0 Bft) O-NO 67 -2,1 C 0,0 km/h (0 Bft)
06.01.2016 09:35 -0,1 C -0,2 C 87 % 1003,4 hPa 0,0 mm 0,0 km/h (0 Bft) S 180 -2,0 C 0,0 km/h (0 Bft)
06.01.2016 09:40 0,1 C -0,1 C 87 % 1003,4 hPa 0,0 mm 0,0 km/h (0 Bft) SO 135 -1,8 C 0,0 km/h (0 Bft)
06.01.2016 09:45 0,0 C -0,1 C 87 % 1003,4 hPa 0,0 mm 0,0 km/h (0 Bft) N-NW 337 -1,9 C 0,0 km/h (0 Bft)
06.01.2016 09:50 0,0 C -0,1 C 87 % 1003,4 hPa 0,0 mm 0,0 km/h (0 Bft) SW 225 -1,9 C 0,0 km/h (0 Bft)
06.01.2016 09:55 0,0 C 0,0 C 87 % 1003,6 hPa 0,0 mm 0,0 km/h (0 Bft) S 180 -1,9 C 0,0 km/h (0 Bft)
06.01.2016 10:00 0,1 C 0,2 C 84 % 1003,6 hPa 0,0 mm 0,0 km/h (0 Bft) W-SW 247 -2,3 C 2,8 km/h (1 Bft)
06.01.2016 10:05 0,2 C 0,2 C 84 % 1003,6 hPa 0,0 mm 0,5 km/h (0 Bft) N-NO 22 -2,2 C 0,0 km/h (0 Bft)
06.01.2016 10:10 0,2 C 0,3 C 84 % 1003,6 hPa 0,0 mm 0,5 km/h (0 Bft) NO 45 -2,2 C 0,0 km/h (0 Bft)
06.01.2016 10:15 0,4 C 0,5 C 87 % 1003,9 hPa 0,0 mm 0,0 km/h (0 Bft) NO 45 -1,5 C 0,0 km/h (0 Bft)
06.01.2016 10:20 0,4 C 0,9 C 84 % 1003,9 hPa 0,0 mm 0,0 km/h (0 Bft) N-NW 337 -2,0 C 0,0 km/h (0 Bft)
06.01.2016 10:25 0,6 C 1,1 C 84 % 1003,9 hPa 0,0 mm 0,0 km/h (0 Bft) N-NO 22 -1,8 C 0,0 km/h (0 Bft)
06.01.2016 10:30 0,7 C 1,3 C 86 % 1003,9 hPa 0,0 mm 0,0 km/h (0 Bft) N-NO 22 -1,4 C 0,0 km/h (0 Bft)
06.01.2016 10:35 0,7 C 1,3 C 86 % 1004,0 hPa 0,0 mm 0,0 km/h (0 Bft) NO 45 -1,4 C 0,0 km/h (0 Bft)
06.01.2016 10:40 0,7 C 1,1 C 86 % 1004,0 hPa 0,0 mm 0,0 km/h (0 Bft) O-NO 67 -1,4 C 0,0 km/h (0 Bft)
06.01.2016 10:46 0,7 C 1,0 C 86 % 1004,0 hPa 0,0 mm 0,0 km/h (0 Bft) O-NO 67 -1,4 C 0,0 km/h (0 Bft)
06.01.2016 10:50 0,7 C 1,1 C 86 % 1004,0 hPa 0,0 mm 0,0 km/h (0 Bft) O-NO 67 -1,4 C 0,0 km/h (0 Bft)
06.01.2016 10:55 0,8 C 1,3 C 86 % 1003,7 hPa 0,0 mm 0,0 km/h (0 Bft) O-NO 67 -1,3 C 0,0 km/h (0 Bft)
06.01.2016 11:00 0,9 C 1,4 C 86 % 1003,7 hPa 0,0 mm 0,0 km/h (0 Bft) O-NO 67 -1,2 C 0,0 km/h (0 Bft)
06.01.2016 11:05 0,8 C 1,3 C 86 % 1003,7 hPa 0,0 mm 0,0 km/h (0 Bft) O-NO 67 -1,3 C 0,0 km/h (0 Bft)
06.01.2016 11:10 0,6 C 1,0 C 86 % 1003,7 hPa 0,0 mm 0,0 km/h (0 Bft) O-NO 67 -1,5 C 0,0 km/h (0 Bft)
06.01.2016 11:15 0,5 C 0,8 C 85 % 1003,8 hPa 0,0 mm 0,3 km/h (0 Bft) W-NW 292 -1,7 C 3,4 km/h (1 Bft)
06.01.2016 11:20 0,9 C 0,9 C 83 % 1003,8 hPa 0,0 mm 0,3 km/h (0 Bft) O-NO 67 -1,7 C 0,0 km/h (0 Bft)
06.01.2016 11:25 1,0 C 1,1 C 83 % 1003,8 hPa 0,0 mm 0,3 km/h (0 Bft) SO 135 -1,6 C 0,0 km/h (0 Bft)
06.01.2016 11:30 1,5 C 1,5 C 83 % 1003,8 hPa 0,0 mm 0,0 km/h (0 Bft) O 90 -1,1 C 0,0 km/h (0 Bft)
06.01.2016 11:35 1,7 C 1,9 C 83 % 1003,5 hPa 0,0 mm 0,0 km/h (0 Bft) O-NO 67 -0,9 C 0,0 km/h (0 Bft)
06.01.2016 11:40 2,3 C 2,5 C 82 % 1003,5 hPa 0,0 mm 0,0 km/h (0 Bft) NW 315 -0,4 C 0,0 km/h (0 Bft)
06.01.2016 11:45 2,7 C 3,4 C 82 % 1003,5 hPa 0,0 mm 0,0 km/h (0 Bft) NO 45 -0,1 C 0,0 km/h (0 Bft)
06.01.2016 11:50 2,9 C 4,4 C 82 % 1003,5 hPa 0,0 mm 0,0 km/h (0 Bft) N-NO 22 0,1 C 0,0 km/h (0 Bft)
06.01.2016 11:55 3,1 C 4,8 C 80 % 1003,3 hPa 0,0 mm 0,0 km/h (0 Bft) O-NO 67 -0,0 C 0,0 km/h (0 Bft)
06.01.2016 12:00 3,3 C 5,4 C 80 % 1003,3 hPa 0,0 mm 0,8 km/h (0 Bft) O-NO 67 0,2 C 2,6 km/h (1 Bft)
06.01.2016 12:05 3,4 C 5,5 C 79 % 1003,3 hPa 0,0 mm 2,1 km/h (1 Bft) O-NO 67 0,1 C 6,7 km/h (2 Bft)
06.01.2016 12:10 3,7 C 5,5 C 79 % 1003,3 hPa 0,0 mm 4,1 km/h (1 Bft) O-SO 112 0,4 C 0,0 km/h (0 Bft)
06.01.2016 12:15 3,9 C 5,8 C 78 % 1003,3 hPa 0,0 mm 3,6 km/h (1 Bft) NO 45 0,4 C 0,0 km/h (0 Bft)
06.01.2016 12:20 4,0 C 5,9 C 76 % 1003,3 hPa 0,0 mm 3,1 km/h (1 Bft) O-NO 67 0,2 C 4,4 km/h (1 Bft)
06.01.2016 12:25 4,1 C 5,9 C 76 % 1003,3 hPa 0,0 mm 3,9 km/h (1 Bft) NO 45 0,3 C 5,7 km/h (1 Bft)
06.01.2016 12:30 4,2 C 6,1 C 75 % 1003,3 hPa 0,0 mm 2,6 km/h (1 Bft) O-SO 112 0,2 C 2,8 km/h (1 Bft)
06.01.2016 12:35 4,4 C 6,2 C 74 % 1003,4 hPa 0,0 mm 1,0 km/h (0 Bft) O-SO 112 0,2 C 0,0 km/h (0 Bft)
06.01.2016 12:40 4,5 C 6,4 C 74 % 1003,4 hPa 0,0 mm 0,5 km/h (0 Bft) O-NO 67 0,3 C 0,0 km/h (0 Bft)
06.01.2016 12:45 4,6 C 6,4 C 73 % 1003,4 hPa 0,0 mm 0,5 km/h (0 Bft) O-NO 67 0,2 C 0,0 km/h (0 Bft)
06.01.2016 12:50 4,6 C 6,4 C 73 % 1003,4 hPa 0,0 mm 1,3 km/h (1 Bft) O-SO 112 0,2 C 0,0 km/h (0 Bft)
06.01.2016 12:55 4,6 C 6,4 C 72 % 1003,3 hPa 0,0 mm 0,8 km/h (0 Bft) O-NO 67 -0,0 C 0,0 km/h (0 Bft)
06.01.2016 13:00 4,6 C 6,4 C 72 % 1003,3 hPa 0,0 mm 0,8 km/h (0 Bft) O-NO 67 -0,0 C 0,0 km/h (0 Bft)
06.01.2016 13:05 4,6 C 6,3 C 71 % 1003,3 hPa 0,0 mm 0,8 km/h (0 Bft) O-SO 112 -0,2 C 0,0 km/h (0 Bft)
06.01.2016 13:10 4,6 C 6,3 C 71 % 1003,3 hPa 0,0 mm 0,3 km/h (0 Bft) O-NO 67 -0,2 C 0,0 km/h (0 Bft)
06.01.2016 13:15 4,7 C 6,2 C 71 % 1003,2 hPa 0,0 mm 0,0 km/h (0 Bft) NO 45 -0,1 C 0,0 km/h (0 Bft)
06.01.2016 13:20 4,7 C 6,0 C 70 % 1003,2 hPa 0,0 mm 2,3 km/h (1 Bft) O-NO 67 -0,3 C 4,7 km/h (1 Bft)
06.01.2016 13:25 4,7 C 5,8 C 70 % 1003,2 hPa 0,0 mm 3,1 km/h (1 Bft) NO 45 -0,3 C 0,0 km/h (0 Bft)
06.01.2016 13:30 4,4 C 5,5 C 70 % 1003,2 hPa 0,0 mm 3,1 km/h (1 Bft) O-NO 67 -0,6 C 4,1 km/h (1 Bft)
06.01.2016 13:35 4,3 C 5,2 C 70 % 1003,0 hPa 0,0 mm 3,1 km/h (1 Bft) O-NO 67 -0,7 C 2,6 km/h (1 Bft)
06.01.2016 13:40 4,2 C 5,2 C 70 % 1003,0 hPa 0,0 mm 1,6 km/h (1 Bft) O-NO 67 -0,8 C 0,0 km/h (0 Bft)
06.01.2016 13:45 4,2 C 5,2 C 70 % 1003,0 hPa 0,0 mm 0,3 km/h (0 Bft) NO 45 -0,8 C 2,8 km/h (1 Bft)
06.01.2016 13:50 4,2 C 5,2 C 70 % 1003,0 hPa 0,0 mm 0,5 km/h (0 Bft) O-NO 67 -0,8 C 2,8 km/h (1 Bft)
06.01.2016 13:55 4,2 C 5,1 C 70 % 1003,0 hPa 0,0 mm 1,3 km/h (1 Bft) O 90 -0,8 C 0,0 km/h (0 Bft)
06.01.2016 14:00 4,2 C 5,1 C 70 % 1003,0 hPa 0,0 mm 1,6 km/h (1 Bft) NO 45 -0,8 C 0,0 km/h (0 Bft)
06.01.2016 14:05 4,2 C 5,1 C 70 % 1003,0 hPa 0,0 mm 0,8 km/h (0 Bft) NO 45 -0,8 C 3,6 km/h (1 Bft)
06.01.2016 14:10 4,4 C 5,1 C 70 % 1003,0 hPa 0,0 mm 0,5 km/h (0 Bft) NO 45 -0,6 C 0,0 km/h (0 Bft)
06.01.2016 14:15 4,4 C 5,2 C 70 % 1003,2 hPa 0,0 mm 0,3 km/h (0 Bft) O-NO 67 -0,6 C 0,0 km/h (0 Bft)
06.01.2016 14:20 4,4 C 5,2 C 70 % 1003,2 hPa 0,0 mm 0,5 km/h (0 Bft) NO 45 -0,6 C 5,2 km/h (1 Bft)
06.01.2016 14:25 4,2 C 5,1 C 70 % 1003,2 hPa 0,0 mm 0,8 km/h (0 Bft) N-NO 22 -0,8 C 0,0 km/h (0 Bft)
06.01.2016 14:30 4,2 C 5,1 C 69 % 1003,2 hPa 0,0 mm 0,5 km/h (0 Bft) O 90 -1,0 C 0,0 km/h (0 Bft)
06.01.2016 14:35 4,4 C 5,2 C 69 % 1003,2 hPa 0,0 mm 0,0 km/h (0 Bft) N-NO 22 -0,8 C 3,6 km/h (1 Bft)
06.01.2016 14:40 4,4 C 5,2 C 69 % 1003,2 hPa 0,0 mm 0,3 km/h (0 Bft) N-NO 22 -0,8 C 0,0 km/h (0 Bft)
06.01.2016 14:45 4,4 C 5,2 C 70 % 1003,2 hPa 0,0 mm 0,3 km/h (0 Bft) O-NO 67 -0,6 C 0,0 km/h (0 Bft)
06.01.2016 14:50 4,4 C 5,1 C 70 % 1003,2 hPa 0,0 mm 0,0 km/h (0 Bft) O-NO 67 -0,6 C 0,0 km/h (0 Bft)
06.01.2016 14:55 4,3 C 5,1 C 70 % 1003,4 hPa 0,0 mm 0,0 km/h (0 Bft) O-NO 67 -0,7 C 0,0 km/h (0 Bft)
06.01.2016 15:00 4,4 C 5,2 C 70 % 1003,4 hPa 0,0 mm 0,0 km/h (0 Bft) NO 45 -0,6 C 0,0 km/h (0 Bft)
06.01.2016 15:05 4,4 C 5,2 C 70 % 1003,4 hPa 0,0 mm 0,0 km/h (0 Bft) O 90 -0,6 C 0,0 km/h (0 Bft)
06.01.2016 15:10 4,4 C 5,3 C 70 % 1003,4 hPa 0,0 mm 0,0 km/h (0 Bft) N-NO 22 -0,6 C 0,0 km/h (0 Bft)
06.01.2016 15:15 4,5 C 5,3 C 70 % 1003,5 hPa 0,0 mm 0,0 km/h (0 Bft) N-NO 22 -0,5 C 0,0 km/h (0 Bft)
06.01.2016 15:20 4,4 C 5,2 C 70 % 1003,5 hPa 0,0 mm 0,0 km/h (0 Bft) N-NO 22 -0,6 C 0,0 km/h (0 Bft)
06.01.2016 15:25 4,4 C 5,2 C 70 % 1003,5 hPa 0,0 mm 0,0 km/h (0 Bft) N-NO 22 -0,6 C 0,0 km/h (0 Bft)
06.01.2016 15:30 4,1 C 4,9 C 70 % 1003,5 hPa 0,0 mm 0,0 km/h (0 Bft) N-NO 22 -0,9 C 0,0 km/h (0 Bft)
06.01.2016 15:34 4,0 C 4,6 C 70 % 1003,5 hPa 0,0 mm 0,3 km/h (0 Bft) W 270 -1,0 C 0,0 km/h (0 Bft)
06.01.2016 15:36 3,9 C 4,4 C 70 % 1003,5 hPa 0,0 mm 0,3 km/h (0 Bft) W-SW 247 -1,1 C 0,0 km/h (0 Bft)
06.01.2016 15:38 3,8 C 4,3 C 70 % 1003,5 hPa 0,0 mm 0,5 km/h (0 Bft) W-SW 247 -1,2 C 0,0 km/h (0 Bft)
06.01.2016 15:40 3,8 C 4,3 C 70 % 1003,5 hPa 0,0 mm 0,5 km/h (0 Bft) W-SW 247 -1,2 C 0,0 km/h (0 Bft)
06.01.2016 15:45 3,7 C 4,1 C 71 % 1003,5 hPa 0,0 mm 0,3 km/h (0 Bft) W-SW 247 -1,1 C 0,0 km/h (0 Bft)
06.01.2016 15:57 3,7 C 4,1 C 71 % 1003,7 hPa 0,0 mm 0,0 km/h (0 Bft) W-NW 292 -1,1 C 0,0 km/h (0 Bft)
06.01.2016 16:00 3,3 C 3,3 C 71 % 1003,7 hPa 0,0 mm 3,9 km/h (1 Bft) W 270 -1,4 C 11,7 km/h (2 Bft)
06.01.2016 16:05 3,2 C 3,0 C 72 % 1003,7 hPa 0,0 mm 6,0 km/h (2 Bft) W-NW 292 -1,3 C 10,6 km/h (2 Bft)
06.01.2016 16:10 3,1 C 2,9 C 72 % 1003,7 hPa 0,0 mm 6,0 km/h (2 Bft) W 270 -1,4 C 12,7 km/h (3 Bft)
06.01.2016 16:15 2,9 C 2,6 C 73 % 1004,2 hPa 0,0 mm 6,5 km/h (2 Bft) W-NW 292 -1,5 C 9,3 km/h (2 Bft)
06.01.2016 16:20 2,6 C 2,1 C 74 % 1004,2 hPa 0,0 mm 7,3 km/h (2 Bft) W-SW 247 -1,6 C 17,3 km/h (3 Bft)
06.01.2016 16:25 2,3 C 1,8 C 74 % 1004,2 hPa 0,0 mm 6,7 km/h (2 Bft) W-SW 247 -1,8 C 6,7 km/h (2 Bft)
06.01.2016 16:30 1,8 C 1,6 C 75 % 1004,2 hPa 0,0 mm 4,4 km/h (1 Bft) SW 225 -2,1 C 4,9 km/h (1 Bft)
06.01.2016 16:35 1,7 C 1,4 C 76 % 1004,5 hPa 0,0 mm 2,6 km/h (1 Bft) S 180 -2,1 C 4,4 km/h (1 Bft)
06.01.2016 16:40 1,5 C 1,2 C 77 % 1004,5 hPa 0,0 mm 2,6 km/h (1 Bft) W-SW 247 -2,1 C 3,6 km/h (1 Bft)
06.01.2016 16:45 1,4 C 1,1 C 77 % 1001,7 hPa 0,0 mm 2,8 km/h (1 Bft) W-NW 292 -2,2 C 2,6 km/h (1 Bft)
06.01.2016 16:50 1,3 C 1,0 C 78 % 1002,0 hPa 0,7 mm 1,0 km/h (0 Bft) S 180 -2,1 C 0,0 km/h (0 Bft)
06.01.2016 16:55 1,3 C 1,0 C 79 % 1001,8 hPa 0,0 mm 0,0 km/h (0 Bft) O-SO 112 -1,9 C 0,0 km/h (0 Bft)
06.01.2016 17:00 1,1 C 0,8 C 82 % 1001,8 hPa 0,0 mm 0,0 km/h (0 Bft) O 90 -1,6 C 0,0 km/h (0 Bft)
06.01.2016 17:05 1,1 C 0,8 C 82 % 1001,8 hPa 0,0 mm 0,0 km/h (0 Bft) O-NO 67 -1,6 C 0,0 km/h (0 Bft)
06.01.2016 17:10 1,1 C 0,8 C 83 % 1001,8 hPa 0,0 mm 0,0 km/h (0 Bft) O-NO 67 -1,5 C 0,0 km/h (0 Bft)
06.01.2016 17:15 1,0 C 0,7 C 82 % 1001,8 hPa 0,0 mm 0,0 km/h (0 Bft) O-NO 67 -1,7 C 0,0 km/h (0 Bft)
06.01.2016 17:20 1,0 C 0,7 C 83 % 1001,8 hPa 0,0 mm 0,0 km/h (0 Bft) O-SO 112 -1,6 C 0,0 km/h (0 Bft)
06.01.2016 17:25 0,9 C 0,6 C 83 % 1001,8 hPa 0,0 mm 0,5 km/h (0 Bft) W 270 -1,7 C 0,0 km/h (0 Bft)
06.01.2016 17:30 0,9 C 0,6 C 83 % 1001,8 hPa 0,0 mm 0,5 km/h (0 Bft) W 270 -1,7 C 0,0 km/h (0 Bft)
06.01.2016 17:35 0,9 C 0,6 C 83 % 1002,0 hPa 0,0 mm 0,3 km/h (0 Bft) W-SW 247 -1,7 C 0,0 km/h (0 Bft)
06.01.2016 17:40 0,9 C 0,7 C 84 % 1002,0 hPa 0,0 mm 0,8 km/h (0 Bft) S 180 -1,5 C 2,6 km/h (1 Bft)
06.01.2016 17:45 0,9 C 0,7 C 84 % 1002,0 hPa 0,0 mm 0,5 km/h (0 Bft) SW 225 -1,5 C 2,6 km/h (1 Bft)
06.01.2016 17:50 0,9 C 0,7 C 84 % 1002,0 hPa 0,0 mm 1,3 km/h (1 Bft) SW 225 -1,5 C 4,4 km/h (1 Bft)
06.01.2016 17:55 0,9 C 0,7 C 85 % 1002,2 hPa 0,0 mm 2,8 km/h (1 Bft) W 270 -1,3 C 4,4 km/h (1 Bft)
06.01.2016 18:00 0,8 C 0,6 C 85 % 1002,2 hPa 0,0 mm 3,9 km/h (1 Bft) W-SW 247 -1,4 C 2,6 km/h (1 Bft)
06.01.2016 18:05 0,8 C 0,6 C 85 % 1002,2 hPa 0,0 mm 2,6 km/h (1 Bft) SW 225 -1,4 C 0,0 km/h (0 Bft)
06.01.2016 18:10 0,7 C 0,5 C 85 % 1002,2 hPa 0,0 mm 1,0 km/h (0 Bft) W 270 -1,5 C 2,8 km/h (1 Bft)
06.01.2016 18:15 0,6 C 0,4 C 85 % 1002,2 hPa 0,0 mm 0,5 km/h (0 Bft) W 270 -1,6 C 0,0 km/h (0 Bft)
06.01.2016 18:20 0,5 C 0,3 C 85 % 1002,2 hPa 0,0 mm 0,5 km/h (0 Bft) W 270 -1,7 C 0,0 km/h (0 Bft)
06.01.2016 18:21 0,5 C 0,3 C 85 % 1002,2 hPa 0,0 mm 0,5 km/h (0 Bft) W 270 -1,7 C 0,0 km/h (0 Bft)
06.01.2016 18:25 0,5 C 0,3 C 85 % 1002,2 hPa 0,0 mm 0,8 km/h (0 Bft) W-SW 247 -1,7 C 0,0 km/h (0 Bft)
06.01.2016 18:30 0,5 C 0,2 C 85 % 1002,2 hPa 0,0 mm 0,8 km/h (0 Bft) SW 225 -1,7 C 0,0 km/h (0 Bft)
06.01.2016 18:35 0,5 C 0,3 C 85 % 1002,4 hPa 0,0 mm 1,3 km/h (1 Bft) W-SW 247 -1,7 C 4,4 km/h (1 Bft)
06.01.2016 18:40 0,5 C 0,3 C 86 % 1002,4 hPa 0,0 mm 2,1 km/h (1 Bft) W-SW 247 -1,6 C 2,8 km/h (1 Bft)
06.01.2016 18:45 0,5 C 0,3 C 86 % 1002,4 hPa 0,0 mm 1,3 km/h (1 Bft) W 270 -1,6 C 0,0 km/h (0 Bft)
06.01.2016 18:50 0,5 C 0,3 C 86 % 1002,4 hPa 0,0 mm 0,5 km/h (0 Bft) SW 225 -1,6 C 4,9 km/h (1 Bft)
06.01.2016 18:55 0,5 C 0,3 C 86 % 1002,3 hPa 0,0 mm 1,3 km/h (1 Bft) SW 225 -1,6 C 7,8 km/h (2 Bft)
06.01.2016 19:00 0,5 C 0,3 C 86 % 1002,3 hPa 0,0 mm 2,1 km/h (1 Bft) W-SW 247 -1,6 C 4,9 km/h (1 Bft)
06.01.2016 19:05 0,5 C 0,3 C 86 % 1002,3 hPa 0,0 mm 2,1 km/h (1 Bft) W-SW 247 -1,6 C 3,4 km/h (1 Bft)
06.01.2016 19:10 0,5 C 0,3 C 86 % 1002,3 hPa 0,0 mm 1,6 km/h (1 Bft) W-SW 247 -1,6 C 0,0 km/h (0 Bft)
06.01.2016 19:15 0,4 C 0,2 C 86 % 1002,6 hPa 0,0 mm 0,8 km/h (0 Bft) W-SW 247 -1,7 C 0,0 km/h (0 Bft)
06.01.2016 19:20 0,4 C 0,2 C 87 % 1002,6 hPa 0,0 mm 0,8 km/h (0 Bft) SW 225 -1,5 C 6,0 km/h (2 Bft)
06.01.2016 19:25 0,4 C 0,2 C 87 % 1002,6 hPa 0,0 mm 1,0 km/h (0 Bft) SW 225 -1,5 C 0,0 km/h (0 Bft)
06.01.2016 19:30 0,4 C 0,2 C 87 % 1002,6 hPa 0,0 mm 1,0 km/h (0 Bft) W-SW 247 -1,5 C 0,0 km/h (0 Bft)
06.01.2016 19:35 0,4 C 0,2 C 87 % 1002,6 hPa 0,0 mm 0,5 km/h (0 Bft) W-SW 247 -1,5 C 0,0 km/h (0 Bft)
06.01.2016 19:40 0,3 C 0,1 C 87 % 1002,6 hPa 0,0 mm 0,0 km/h (0 Bft) W-SW 247 -1,6 C 0,0 km/h (0 Bft)
06.01.2016 19:45 0,3 C 0,1 C 87 % 1002,6 hPa 0,0 mm 0,0 km/h (0 Bft) W-SW 247 -1,6 C 0,0 km/h (0 Bft)
06.01.2016 19:50 0,3 C 0,1 C 87 % 1002,6 hPa 0,0 mm 0,0 km/h (0 Bft) W-SW 247 -1,6 C 0,0 km/h (0 Bft)
06.01.2016 19:55 0,3 C 0,1 C 87 % 1002,7 hPa 0,0 mm 0,0 km/h (0 Bft) W-SW 247 -1,6 C 0,0 km/h (0 Bft)
06.01.2016 20:00 0,3 C 0,1 C 87 % 1002,7 hPa 0,0 mm 0,0 km/h (0 Bft) W-SW 247 -1,6 C 0,0 km/h (0 Bft)
06.01.2016 20:05 0,3 C 0,1 C 88 % 1002,7 hPa 0,0 mm 0,0 km/h (0 Bft) W-SW 247 -1,4 C 0,0 km/h (0 Bft)
06.01.2016 20:10 0,3 C 0,1 C 88 % 1002,7 hPa 0,0 mm 0,0 km/h (0 Bft) W-SW 247 -1,4 C 0,0 km/h (0 Bft)
06.01.2016 20:15 0,3 C 0,1 C 88 % 1002,7 hPa 0,0 mm 0,0 km/h (0 Bft) W-SW 247 -1,4 C 0,0 km/h (0 Bft)
06.01.2016 20:20 0,3 C 0,1 C 88 % 1002,7 hPa 0,0 mm 0,0 km/h (0 Bft) W-SW 247 -1,4 C 0,0 km/h (0 Bft)
06.01.2016 20:25 0,3 C 0,1 C 88 % 1002,7 hPa 0,0 mm 0,3 km/h (0 Bft) W-SW 247 -1,4 C 2,8 km/h (1 Bft)
06.01.2016 20:30 0,4 C 0,2 C 88 % 1002,7 hPa 0,0 mm 1,0 km/h (0 Bft) W-SW 247 -1,3 C 5,4 km/h (1 Bft)
06.01.2016 20:35 0,5 C 0,3 C 88 % 1002,8 hPa 0,0 mm 1,6 km/h (1 Bft) W-SW 247 -1,3 C 3,9 km/h (1 Bft)
06.01.2016 20:40 0,5 C 0,3 C 88 % 1002,8 hPa 0,0 mm 0,8 km/h (0 Bft) W-SW 247 -1,3 C 0,0 km/h (0 Bft)
06.01.2016 20:45 0,4 C 0,2 C 88 % 1002,8 hPa 0,0 mm 0,5 km/h (0 Bft) W-SW 247 -1,3 C 0,0 km/h (0 Bft)
06.01.2016 20:50 0,5 C 0,3 C 89 % 1002,8 hPa 0,0 mm 0,3 km/h (0 Bft) W-SW 247 -1,1 C 0,0 km/h (0 Bft)
06.01.2016 20:55 0,5 C 0,3 C 89 % 1003,0 hPa 0,0 mm 0,3 km/h (0 Bft) W-SW 247 -1,1 C 0,0 km/h (0 Bft)
06.01.2016 21:00 0,5 C 0,3 C 89 % 1003,0 hPa 0,0 mm 0,3 km/h (0 Bft) W-SW 247 -1,1 C 0,0 km/h (0 Bft)
06.01.2016 21:05 0,5 C 0,3 C 89 % 1003,0 hPa 0,0 mm 0,3 km/h (0 Bft) W-SW 247 -1,1 C 2,6 km/h (1 Bft)
06.01.2016 21:10 0,5 C 0,3 C 89 % 1003,0 hPa 0,0 mm 0,5 km/h (0 Bft) W-SW 247 -1,1 C 2,6 km/h (1 Bft)
06.01.2016 21:15 0,5 C 0,3 C 89 % 1003,0 hPa 0,0 mm 1,6 km/h (1 Bft) SW 225 -1,1 C 6,2 km/h (2 Bft)
06.01.2016 21:20 0,6 C 0,4 C 89 % 1003,0 hPa 0,0 mm 3,1 km/h (1 Bft) W-SW 247 -1,0 C 5,7 km/h (1 Bft)
06.01.2016 21:25 0,7 C 0,4 C 89 % 1003,0 hPa 0,0 mm 3,6 km/h (1 Bft) W-SW 247 -0,9 C 4,1 km/h (1 Bft)
06.01.2016 21:30 0,7 C 0,4 C 89 % 1003,0 hPa 0,0 mm 3,1 km/h (1 Bft) W 270 -0,9 C 2,6 km/h (1 Bft)
06.01.2016 21:35 0,7 C 0,4 C 89 % 1003,0 hPa 0,0 mm 3,4 km/h (1 Bft) SW 225 -0,9 C 4,4 km/h (1 Bft)
06.01.2016 21:38 0,7 C 0,4 C 89 % 1003,0 hPa 0,0 mm 4,1 km/h (1 Bft) W-SW 247 -0,9 C 5,7 km/h (1 Bft)
06.01.2016 21:41 0,7 C 0,4 C 89 % 1003,0 hPa 0,0 mm 4,1 km/h (1 Bft) W-SW 247 -0,9 C 5,7 km/h (1 Bft)
06.01.2016 21:45 0,7 C 0,3 C 89 % 1003,0 hPa 0,0 mm 4,7 km/h (1 Bft) W 270 -0,9 C 4,7 km/h (1 Bft)
06.01.2016 21:50 0,7 C 0,3 C 89 % 1003,0 hPa 0,0 mm 4,9 km/h (1 Bft) W-SW 247 -0,9 C 2,6 km/h (1 Bft)
06.01.2016 21:55 0,7 C 0,5 C 89 % 1003,1 hPa 0,0 mm 3,9 km/h (1 Bft) W-SW 247 -0,9 C 6,2 km/h (2 Bft)
06.01.2016 22:00 0,7 C 0,5 C 89 % 1003,1 hPa 0,0 mm 2,8 km/h (1 Bft) W-SW 247 -0,9 C 2,6 km/h (1 Bft)
06.01.2016 22:05 0,7 C 0,5 C 89 % 1003,1 hPa 0,0 mm 3,6 km/h (1 Bft) W-SW 247 -0,9 C 3,6 km/h (1 Bft)
06.01.2016 22:10 0,7 C 0,5 C 90 % 1003,1 hPa 0,0 mm 3,1 km/h (1 Bft) SW 225 -0,7 C 2,6 km/h (1 Bft)
06.01.2016 22:15 0,7 C 0,5 C 90 % 1003,0 hPa 0,0 mm 2,8 km/h (1 Bft) W-SW 247 -0,7 C 3,6 km/h (1 Bft)
06.01.2016 22:20 0,7 C 0,5 C 90 % 1003,0 hPa 0,0 mm 2,3 km/h (1 Bft) W-SW 247 -0,7 C 6,5 km/h (2 Bft)
06.01.2016 22:25 0,7 C 0,5 C 90 % 1003,0 hPa 0,0 mm 2,1 km/h (1 Bft) W-SW 247 -0,7 C 5,2 km/h (1 Bft)
06.01.2016 22:30 0,7 C 0,5 C 90 % 1003,0 hPa 0,0 mm 3,4 km/h (1 Bft) W-SW 247 -0,7 C 6,5 km/h (2 Bft)
06.01.2016 22:35 0,8 C 0,4 C 90 % 1003,0 hPa 0,0 mm 4,7 km/h (1 Bft) SW 225 -0,6 C 10,1 km/h (2 Bft)
06.01.2016 22:40 0,8 C 0,3 C 90 % 1003,0 hPa 0,0 mm 5,4 km/h (1 Bft) S-SW 202 -0,6 C 7,3 km/h (2 Bft)
06.01.2016 22:45 0,7 C 0,3 C 90 % 1003,0 hPa 0,0 mm 5,2 km/h (1 Bft) W-SW 247 -0,7 C 6,2 km/h (2 Bft)
06.01.2016 22:50 0,7 C 0,4 C 90 % 1003,0 hPa 0,0 mm 4,4 km/h (1 Bft) W-SW 247 -0,7 C 5,7 km/h (1 Bft)
06.01.2016 22:55 0,7 C 0,4 C 90 % 1003,0 hPa 0,0 mm 4,4 km/h (1 Bft) SW 225 -0,7 C 3,6 km/h (1 Bft)
06.01.2016 23:00 0,7 C 0,4 C 90 % 1003,0 hPa 0,0 mm 4,4 km/h (1 Bft) W 270 -0,7 C 3,1 km/h (1 Bft)
06.01.2016 23:05 0,7 C 0,5 C 90 % 1003,0 hPa 0,0 mm 2,8 km/h (1 Bft) W-SW 247 -0,7 C 0,0 km/h (0 Bft)
06.01.2016 23:10 0,7 C 0,5 C 90 % 1003,0 hPa 0,7 mm 1,8 km/h (1 Bft) SW 225 -0,7 C 5,7 km/h (1 Bft)
06.01.2016 23:15 0,7 C 0,5 C 90 % 1003,1 hPa 0,0 mm 3,4 km/h (1 Bft) SW 225 -0,7 C 6,2 km/h (2 Bft)
06.01.2016 23:20 0,8 C 0,3 C 90 % 1003,1 hPa 0,0 mm 5,4 km/h (1 Bft) S-SW 202 -0,6 C 6,5 km/h (2 Bft)
06.01.2016 23:25 0,8 C 0,3 C 90 % 1003,1 hPa 0,0 mm 5,4 km/h (1 Bft) W-SW 247 -0,6 C 6,2 km/h (2 Bft)
06.01.2016 23:30 0,8 C 0,4 C 91 % 1003,1 hPa 0,0 mm 4,7 km/h (1 Bft) SW 225 -0,5 C 4,4 km/h (1 Bft)
06.01.2016 23:35 0,8 C 0,6 C 91 % 1003,1 hPa 0,0 mm 3,1 km/h (1 Bft) W-SW 247 -0,5 C 0,0 km/h (0 Bft)
06.01.2016 23:40 0,7 C 0,5 C 90 % 1003,1 hPa 0,0 mm 0,8 km/h (0 Bft) W-SW 247 -0,7 C 0,0 km/h (0 Bft)
06.01.2016 23:45 0,7 C 0,5 C 90 % 1003,1 hPa 0,0 mm 0,3 km/h (0 Bft) W-NW 292 -0,7 C 0,0 km/h (0 Bft)
06.01.2016 23:50 0,7 C 0,5 C 90 % 1003,1 hPa 0,0 mm 0,5 km/h (0 Bft) W 270 -0,7 C 0,0 km/h (0 Bft)
06.01.2016 23:55 0,7 C 0,5 C 90 % 1003,0 hPa 0,0 mm 0,5 km/h (0 Bft) SW 225 -0,7 C 0,0 km/h (0 Bft)
_ Min-Zeit 07:25 07:25 14:40 16:45 - 20:20 - - 07:30 23:55
Minimum _ -1,4 C -1,6 C 69 % 1001,7 hPa - 0,0 km/h (0 Bft) - - -3,6 C 0,0 km/h (0 Bft)
_ Max-Zeit 13:25 13:00 23:35 16:40 23:10 16:20 - - 12:15 16:20
Maximum _ 4,7 C 6,4 C 91 % 1004,5 hPa 0,7 mm 7,3 km/h
W-SW (2 Bft)
- - 0,4 C 17,3 km/h
W-SW (3 Bft)
Durchschnitt _ 1,0 C 1,0 C 83 % 1002,9 hPa #1,4 mm 1,1 km/h (0 Bft) W-SW - -1,6 C 1,5 km/h (1 Bft)